Location: Laterina
(43.5167°N, 11.7167°E)
Time: 16:43:33
(UTC+00:00)

Cosmos 1844 - Pass Details

Date: 24 September 2020
Orbit: 824 x 866 km, 70.9° (Epoch: 25 October)

Event Time Altitude Azimuth Distance (km) Brightness Sun altitude
Rises 18:01:28 0° 194° (SSW) 3,408 6.9 -10.8°
Reaches altitude 10° 18:03:56 10° 191° (SSW) 2,470 6.2 -11.2°
Maximum altitude 18:09:32 65° 111° (ESE) 925 3.7 -12.2°
Drops below altitude 10° 18:15:07 10° 31° (NNE) 2,458 5.9 -13.2°
Sets 18:17:34 0° 28° (NNE) 3,390 6.7 -13.7°
